Regional Weather Roundup
Issued by NWS

Home | Current Version | Previous Version | Text Only | Print | Product List | Glossary On
Versions: 1 2 3 4 5 6 7 8 9 10 11 12 13 14 15 16 17 18 19 20 21 22 23 24 25 26 27 28 29 30 31 32 33 34 35 36 37 38 39 40 41 42 43 44 45 46 47 48 49 50
000
ASUS44 KMEG 260110
RWRTN
TENNESSEE HOURLY STATE WEATHER ROUNDUP
NATIONAL WEATHER SERVICE MEMPHIS TN
800 PM CDT FRI JUL 25 2014

TNZ002-004-019-021-049-052-054-088>092-260200-
WEST TENNESSEE

CITY           SKY/WX    TMP DP  RH WIND       PRES   REMARKS
MEMPHIS INTL   MOCLDY    82  64  54 S7        29.97F
NWS MEMPHIS      N/A     80 N/A N/A MISG        N/A
JACKSON        MOCLDY    76  68  76 CALM      29.97F
DYERSBURG      MOCLDY    77  61  57 CALM      29.96F
UNION CITY     CLEAR     73  64  73 CALM      29.94F
PARIS          CLOUDY    71  64  78 SW5       29.96S
LEXINGTON      CLEAR     75  66  73 CALM      29.96F
SAVANNAH       MOCLDY    73  72  97 CALM      29.99S
$$

TNZ008-025-027-028-033-062-065-066-260200-
NORTH MIDDLE TENNESSEE

CITY           SKY/WX    TMP DP  RH WIND       PRES   REMARKS
NASHVILLE      MOCLDY    78  60  53 SW6       29.96F
DICKSON        MOCLDY    73  63  68 SW3       29.96F
PORTLAND       MOCLDY    73  63  68 S3        29.95S
CLARKSVILLE    CLOUDY    79  60  52 S8        29.94R
LEBANON        MOCLDY    78  61  55 SE6       29.96F
SMYRNA         MOCLDY    77  64  63 SW6       29.97F
MURFREESBORO   MOCLDY    78  62  57 S9        29.94F
COOKEVILLE     CLEAR     70  64  83 CALM      30.01F
LIVINGSTON       N/A     69  60  73 S3        30.02
GALLATIN       MOCLDY    78  64  61 SE3       29.98S
CROSSVILLE     PTCLDY    68  60  75 W5        30.05F
$$

TNZ061-075-076-078-094-096-097-260200-
SOUTH MIDDLE TENNESSEE

CITY           SKY/WX    TMP DP  RH WIND       PRES   REMARKS
LEWISBURG      MOCLDY    75  66  73 CALM      29.98F
FAYETTEVILLE   CLEAR     73  61  64 E9G23     30.01F
TULLAHOMA      CLEAR     75  61  60 CALM      30.01F
WINCHESTER     CLEAR     73  63  68 CALM      30.01F
MCMINNVILLE    CLEAR     72  66  83 CALM      30.01F
COLUMBIA       CLEAR     73  68  83 SE5       29.97F
SHELBYVILLE    CLEAR     73  68  83 SE3       29.99F
$$

TNZ017-018-042-046-047-260200-
NORTHEAST TENNESSEE

CITY           SKY/WX    TMP DP  RH WIND       PRES   REMARKS
TRI CITIES     PTCLDY    72  60  66 CALM      30.03F
ELIZABETHTON   PTCLDY    68  63  83 CALM      30.04F
$$

TNZ012-013-036-069-073-074-260200-
CENTRAL EAST TENNESSEE

CITY           SKY/WX    TMP DP  RH WIND       PRES   REMARKS
KNOXVILLE      MOCLDY    74  62  66 SW6       30.00F
OAK RIDGE      MOCLDY    77  61  57 CALM      30.01F
GATLINBURG     CLEAR     73  63  68 CALM      30.01S
MORRISTOWN     CLEAR     73  64  73 CALM      30.04S
$$

TNZ083-085-099-260200-
SOUTHEAST TENNESSEE

CITY           SKY/WX    TMP DP  RH WIND       PRES   REMARKS
CHATTANOOGA    MOCLDY    81  62  52 CALM      29.99F
$$

SKY/WX REPORTED AS FAIR MEANS FEW OR NO CLOUDS BELOW
12 THOUSAND FEET.



USA.gov is the U.S. government's official web portal to all federal, state and local government web resources and services.